ONEWEB-0344 (49210 NORAD) Tracking and Keplerian Element Data

This shows tracking and keplerian element data for the satellite.

Feedback or suggestion? Click here.




ElementValue
Catalog49210
NameONEWEB-0344
Epoch Orbit355
Epoch Day300.58334491
Epoch Year2021
RAAN313.0879
Inclination87.1973
Eccentricity0.0022184
Argument of Perigee134.9932
Mean Anonmoly116.146
Mean Motion14.87075778
Decay Rate-0.00029871
L11 49210U 21083AA 21300.58334491 -.00029871 00000-0 -33371-2 0 9991
L22 49210 87.1973 313.0879 0022184 134.9932 116.1460 14.87075778 3558

Live tracking and technical data element details for ONEWEB-0344 (NORAD 49210). ONEWEB-0344 can be tracked NOW for your location showing map with azimuth and elevation plus other details from your city location.

Track the satellite on the map from your city or location and see movement details for azimuth, elevation, latitude, longitude, range, height, and movement on the map or in text.







IsCatalogInMostPopularTable: catalog: 49210, numindb: 10
Update: records affected: 1



GetName: 49210 ONEWEB-0344

Hit Count: updated at: Thu, 28 Oct 2021 11:27:25 GMT